Regional Weather Roundup
Issued by NWS

Home | Current Version | Previous Version | Graphics & Text | Print | Product List | Glossary On
Versions: 1 2 3 4 5 6 7 8 9 10 11 12 13 14 15 16 17 18 19 20 21 22 23 24 25 26 27 28 29 30 31 32 33 34 35 36 37 38 39 40 41 42 43 44 45 46 47 48 49 50
736
ASUS45 KSLC 241710
RWRUT

UTAH REGIONAL WEATHER ROUNDUP
NATIONAL WEATHER SERVICE SALT LAKE CITY UT
1100 AM MDT WED MAY 24 2017

UTZ001>011-023>025-241800-

NORTHERN UTAH

CITY           SKY/WX    TMP DP  RH WIND       PRES   REMARKS
BRIGHAM CITY     N/A     73  36  26 S9        29.80F
DUGWAY         MOSUNNY   82  29  14 SW6       29.81F
HILL AFB       PTSUNNY   73  39  28 S8        29.83F
LOGAN            N/A     71  45  39 N6        29.78F
OGDEN            N/A     74  38  27 SW8       29.81F
SALT LAKE CITY   N/A     80  37  21 S16       29.79F
TOOELE VALLEY    N/A     81  41  24 S13G21    29.80F
WENDOVER         N/A     83  32  16 W20       29.79F
HEBER CITY       N/A     66  37  34 CALM      29.87F
WEST JORDAN    PTSUNNY   74  49  41 SE17G23   29.83F

$$

UTZ011>015-024>027-241800-

CENTRAL/NORTHEAST UTAH

CITY           SKY/WX    TMP DP  RH WIND       PRES   REMARKS
PROVO AIRPORT  SUNNY     72  41  33 E5        29.85F
MOAB/CANYONLAN   N/A     76  32  20 VRB5      29.86F
DELTA            N/A     73  30  20 SW9       29.89F
PRICE            N/A     68  32  26 SE7       29.94F
ROOSEVELT        N/A     68  36  30 E3        29.89F
VERNAL           N/A     67  37  33 S3        29.88F

$$

UTZ013>016-019>022-027-241800-

SOUTHERN UTAH

CITY           SKY/WX    TMP DP  RH WIND       PRES   REMARKS
BRYCE CANYON     N/A     73  26  17 W20G26    30.09F
CEDAR CITY       N/A     82  30  15 SW18G33   29.95F
MILFORD          N/A     80  32  17 S15       29.89F
ST GEORGE        N/A     80  31  16 CALM      29.84F
HANKSVILLE       N/A     73  32  21 CALM      29.89F
BLANDING         N/A     70  31  23 S9        30.07F

$$

REGIONAL REPORTS     COLORADO/ARIZONA

CITY           SKY/WX    TMP DP  RH WIND       PRES   REMARKS
CRAIG, CO        N/A     67  39  35 CALM      29.91F
GRAND JUNCTION   N/A     70  33  25 SE9       29.91F
RIFLE, CO        N/A     66  32  28 N5        29.94F
MONTROSE, CO     N/A     68  37  32 N6        29.98F
CORTEZ, CO       N/A     72  36  26 VRB5      30.01F
COLORADO CITY    N/A     86  30  13 W3        29.98F
PAGE, AZ         N/A     76  34  21 NE6       29.91F
GRAND CANYON     N/A     75  24  15 SW13      30.11F
KINGMAN, AZ      N/A     92  30  11 W15G22    29.88F
FLAGSTAFF, AZ    N/A     74  20  13 VRB6G18   30.13F

$$

REGIONAL REPORTS    NEVADA/IDAHO/WYOMING

CITY           SKY/WX    TMP DP  RH WIND       PRES   REMARKS
LAS VEGAS, NV    N/A     96  20   6 S10       29.74F
ELY, NY          N/A     75  28  17 S6        29.97F
ELKO, NV         N/A     74  37  26 SW14      29.87F
POCATELLO, ID    N/A     73  44  35 SW33G45   29.75S
BURLEY, ID       N/A     70  43  37 W20G28    29.77F
FORT BRIDGER,    N/A     71  31  22 W29G37    29.93F
EVANSTON, WY     N/A     67  36  31 MISG      29.93F
ROCK SPRINGS,    N/A     69  34  27 W23       29.86F
KEMMERER, WY     N/A     66  32  28 W28G43    29.89F

$$




USA.gov is the U.S. government's official web portal to all federal, state and local government web resources and services.